Location: All Nations United Methodist Church
(33.0215°N, 96.7483°W)
Time: 15:21:51
(UTC+00:00)

Cosmos 1689 Rocket - Pass Details

Date: 24 January 2021
Orbit: 352 x 366 km, 97.5° (Epoch: 07 March)

Event Time Altitude Azimuth Distance (km) Brightness Sun altitude
Rises 12:04:56 0° 159° (SSE) 2,219 6.4 -17.2°
Reaches altitude 10° 12:06:54 10° 154° (SSE) 1,371 5.4 -16.8°
Maximum altitude 12:09:45 53° 76° (ENE) 465 2.8 -16.2°
Drops below altitude 10° 12:12:37 10° 359° (N) 1,375 4.7 -15.6°
Enters shadow 12:13:15 - 357° (N) 1,649 5.1 -15.5°
